Terminal Aerodrome Forecast
Issued by NWS

Home | Current Version | Previous Version | Text Only | Print | Product List | Glossary On
Versions: 1 2 3 4 5 6 7 8 9 10 11 12 13 14 15 16 17 18 19 20 21 22 23 24 25 26
000
FTUS44 KOUN 142330
TAFLAW
TAF
KLAW 142330Z 1500/1524 17008KT P6SM SCT070 BKN120
      TEMPO 1500/1504 -RA
     FM151500 19010KT P6SM SCT050 BKN100
     FM152100 16008KT P6SM SCT050 BKN080 PROB30 1521/1524 6SM -SHRA
      BKN050=

USA.gov is the U.S. government's official web portal to all federal, state and local government web resources and services.